Canby, MN

6:27 AM CST on February 24, 2018 (GMT -0600)
Canby

Weather History for KCNB - August, 2013

Change the Weather History Date:

Sunday, August 18, 2013

  Actual Average (KMML) Record (KMML)
Temperature  
Mean Temperature 71 °F -  
Max Temperature 80 °F 81 °F 97 °F (1972)
Min Temperature 63 °F 57 °F 44 °F (2002)
Cooling Degree Days 6    
Growing Degree Days 21 (Base 50)    
Moisture  
Dew Point 59 °F    
Average Humidity 66    
Maximum Humidity 76    
Minimum Humidity 54    
Precipitation  
Precipitation 0.00 in - - ()
Sea Level Pressure  
Sea Level Pressure 30.04 in    
Wind  
Wind Speed 10 mph (South)    
Max Wind Speed 17 mph    
Max Gust Speed 24 mph    
Visibility 10 miles    
Events      
Averages and records for this station are not official NWS values.
T = Trace of Precipitation, MM = Missing Value Source: NWS Daily Summary

Daily Weather History Graph

Daily Weather History Graph

Search for Another Location

Airport or City:

Trip Planner

Search our weather history database for the weather conditions in past years. The results will help you decide how hot, cold, wet, or windy it might be!

Date:

Astronomy

Aug. 18, 2013 Rise Set
Actual Time 6:31 AM CDT 8:25 PM CDT
Civil Twilight 5:59 AM CDT 8:56 PM CDT
Nautical Twilight 5:21 AM CDT 9:35 PM CDT
Astronomical Twilight 4:39 AM CDT 10:16 PM CDT
Moon 6:34 PM CDT (8/18) 3:38 AM CDT (8/18)
Length of Visible Light 14h 57m
Length of Day
13h 54m
Waxing Gibbous, 92% of the Moon is Illuminated
Aug 18
Waxing Gibbous
Aug 20
Full
Aug 28
Last Quarter
Sep 5
New
Sep 12
First Quarter

Hourly Weather History & Observations

Time (CDT) Temp. Dew Point Humidity Pressure Visibility Wind Dir Wind Speed Gust Speed Precip Events Conditions
12:14 AM 65.5 °F 57.7 °F 76% 30.08 in 10.0 mi South 6.9 mph - N/A   Clear
12:34 AM 65.3 °F 57.4 °F 76% 30.07 in 10.0 mi South 6.9 mph - N/A   Clear
12:54 AM 65.7 °F 57.2 °F 74% 30.08 in 10.0 mi South 8.1 mph - N/A   Clear
1:14 AM 66.2 °F 56.8 °F 72% 30.09 in 10.0 mi South 8.1 mph - N/A   Clear
1:34 AM 66.4 °F 56.3 °F 70% 30.09 in 10.0 mi South 9.2 mph - N/A   Clear
1:54 AM 66.2 °F 56.3 °F 70% 30.09 in 10.0 mi South 10.4 mph - N/A   Clear
2:14 AM 65.8 °F 56.3 °F 71% 30.08 in 10.0 mi South 9.2 mph - N/A   Clear
2:34 AM 65.7 °F 56.3 °F 72% 30.08 in 10.0 mi South 10.4 mph - N/A   Clear
2:54 AM 65.7 °F 56.1 °F 71% 30.09 in 10.0 mi SSW 6.9 mph - N/A   Clear
3:14 AM 65.5 °F 56.3 °F 72% 30.09 in 10.0 mi South 6.9 mph - N/A   Clear
3:34 AM 65.3 °F 56.3 °F 73% 30.08 in 10.0 mi SSW 9.2 mph - N/A   Clear
3:54 AM 65.3 °F 56.3 °F 73% 30.08 in 10.0 mi South 9.2 mph - N/A   Clear
4:14 AM 64.9 °F 56.3 °F 74% 30.08 in 10.0 mi SSW 10.4 mph 16.1 mph N/A   Clear
4:34 AM 64.8 °F 56.3 °F 74% 30.08 in 10.0 mi SSW 11.5 mph 17.3 mph N/A   Clear
4:54 AM 64.8 °F 56.3 °F 74% 30.08 in 10.0 mi SSW 8.1 mph - N/A   Clear
5:14 AM 64.6 °F 55.9 °F 74% 30.07 in 10.0 mi SSW 9.2 mph - N/A   Clear
5:34 AM 64.4 °F 55.9 °F 74% 30.07 in 10.0 mi SSW 8.1 mph - N/A   Clear
5:54 AM 63.9 °F 55.8 °F 75% 30.07 in 10.0 mi SSW 9.2 mph - N/A   Clear
6:14 AM 63.5 °F 55.8 °F 76% 30.06 in 10.0 mi SSW 9.2 mph - N/A   Clear
6:34 AM 63.7 °F 55.8 °F 75% 30.06 in 10.0 mi SSW 10.4 mph 16.1 mph N/A   Clear
6:54 AM 63.7 °F 55.8 °F 75% 30.06 in 10.0 mi SSW 10.4 mph 16.1 mph N/A   Clear
7:14 AM 63.7 °F 55.8 °F 75% 30.06 in 10.0 mi SSW 9.2 mph - N/A   Clear
7:35 AM 64.6 °F 55.9 °F 74% 30.06 in 10.0 mi South 10.4 mph 16.1 mph N/A   Clear
7:54 AM 65.7 °F 56.3 °F 72% 30.07 in 10.0 mi SSW 8.1 mph 16.1 mph N/A   Clear
8:14 AM 66.9 °F 56.3 °F 69% 30.07 in 10.0 mi South 9.2 mph 16.1 mph N/A   Clear
8:34 AM 68.0 °F 56.7 °F 67% 30.07 in 10.0 mi SSW 9.2 mph - N/A   Clear
8:54 AM 69.4 °F 57.0 °F 65% 30.07 in 10.0 mi SSW 10.4 mph 17.3 mph N/A   Clear
9:14 AM 70.7 °F 57.6 °F 63% 30.07 in 10.0 mi South 12.7 mph 17.3 mph N/A   Clear
9:34 AM 71.4 °F 57.2 °F 61% 30.07 in 10.0 mi South 10.4 mph 19.6 mph N/A   Clear
9:54 AM 72.5 °F 57.4 °F 59% 30.07 in 10.0 mi South 11.5 mph 19.6 mph N/A   Clear
10:14 AM 73.4 °F 57.7 °F 58% 30.06 in 10.0 mi South 10.4 mph 23.0 mph N/A   Clear
10:34 AM 73.8 °F 58.1 °F 58% 30.06 in 10.0 mi South 13.8 mph 21.9 mph N/A   Clear
10:54 AM 75.2 °F 58.8 °F 57% 30.06 in 10.0 mi South 12.7 mph 20.7 mph N/A   Clear
11:14 AM 75.6 °F 59.7 °F 58% 30.05 in 10.0 mi South 15.0 mph 21.9 mph N/A   Clear
11:34 AM 76.1 °F 59.7 °F 57% 30.05 in 10.0 mi South 15.0 mph 21.9 mph N/A   Scattered Clouds
11:54 AM 76.5 °F 59.9 °F 56% 30.05 in 10.0 mi South 16.1 mph 23.0 mph N/A   Clear
12:14 PM 76.6 °F 59.9 °F 56% 30.04 in 10.0 mi SSW 16.1 mph 24.2 mph N/A   Clear
12:34 PM 77.4 °F 60.6 °F 56% 30.03 in 10.0 mi South 12.7 mph 24.2 mph N/A   Clear
12:54 PM 78.3 °F 60.3 °F 54% 30.03 in 10.0 mi South 13.8 mph 23.0 mph N/A   Clear
1:14 PM 78.3 °F 60.4 °F 54% 30.03 in 10.0 mi SSW 17.3 mph 24.2 mph N/A   Clear
1:34 PM 78.8 °F 61.3 °F 55% 30.03 in 10.0 mi SSW 15.0 mph 23.0 mph N/A   Clear
1:54 PM 78.1 °F 61.2 °F 56% 30.03 in 10.0 mi South 13.8 mph 19.6 mph N/A   Clear
2:14 PM 78.8 °F 61.3 °F 55% 30.03 in 10.0 mi South 13.8 mph 23.0 mph N/A   Clear
2:34 PM 79.2 °F 62.1 °F 56% 30.03 in 10.0 mi South 10.4 mph 18.4 mph N/A   Clear
2:54 PM 78.8 °F 62.1 °F 56% 30.02 in 10.0 mi South 12.7 mph 19.6 mph N/A   Clear
3:15 PM 79.2 °F 62.2 °F 56% 30.01 in 10.0 mi South 15.0 mph 20.7 mph N/A   Clear
3:34 PM 79.3 °F 62.8 °F 57% 30.02 in 10.0 mi South 13.8 mph 23.0 mph N/A   Clear
3:54 PM 79.7 °F 62.8 °F 56% 30.02 in 10.0 mi South 9.2 mph - N/A   Clear
4:15 PM 79.5 °F 63.0 °F 57% 30.02 in 10.0 mi South 12.7 mph 17.3 mph N/A   Clear
4:34 PM 79.3 °F 63.1 °F 57% 30.01 in 10.0 mi South 10.4 mph - N/A   Clear
4:54 PM 79.2 °F 63.0 °F 57% 30.01 in 10.0 mi South 16.1 mph 20.7 mph N/A   Clear
5:14 PM 79.0 °F 63.7 °F 59% 30.01 in 10.0 mi South 9.2 mph - N/A   Clear
5:34 PM 79.5 °F 63.3 °F 58% 30.00 in 10.0 mi South 10.4 mph - N/A   Clear
5:54 PM 78.1 °F 63.3 °F 60% 30.01 in 10.0 mi South 9.2 mph 16.1 mph N/A   Clear
6:14 PM 77.0 °F 62.8 °F 61% 30.01 in 10.0 mi South 11.5 mph - N/A   Clear
6:34 PM 77.7 °F 63.3 °F 61% 30.00 in 10.0 mi South 8.1 mph - N/A   Clear
6:54 PM 76.8 °F 63.1 °F 63% 29.99 in 10.0 mi South 9.2 mph - N/A   Mostly Cloudy
7:14 PM 76.5 °F 62.6 °F 62% 29.99 in 10.0 mi South 11.5 mph - N/A   Overcast
7:35 PM 75.9 °F 62.6 °F 63% 29.98 in 10.0 mi South 9.2 mph - N/A   Scattered Clouds
7:54 PM 75.2 °F 62.4 °F 64% 29.98 in 10.0 mi South 9.2 mph - N/A   Clear
8:14 PM 73.9 °F 62.1 °F 66% 29.97 in 10.0 mi South 6.9 mph - N/A   Clear
8:35 PM 72.5 °F 62.1 °F 70% 29.97 in 10.0 mi South 6.9 mph - N/A   Clear
8:54 PM 71.6 °F 62.2 °F 72% 29.97 in 10.0 mi SSE 6.9 mph - N/A   Clear
9:14 PM 71.1 °F 61.9 °F 73% 29.96 in 10.0 mi South 8.1 mph - N/A   Clear
9:34 PM 70.7 °F 61.7 °F 73% 29.97 in 10.0 mi South 8.1 mph - N/A   Clear
9:54 PM 70.7 °F 61.7 °F 73% 29.98 in 10.0 mi South 8.1 mph - N/A   Clear
10:14 PM 70.9 °F 61.2 °F 71% 29.98 in 10.0 mi South 5.8 mph - N/A   Clear
10:34 PM 70.9 °F 61.0 °F 71% 29.97 in 10.0 mi South 9.2 mph - N/A   Clear
10:54 PM 71.1 °F 61.2 °F 71% 29.96 in 10.0 mi South 10.4 mph - N/A   Clear
11:14 PM 71.1 °F 61.3 °F 71% 29.97 in 10.0 mi South 8.1 mph - N/A   Clear
11:34 PM 71.6 °F 61.2 °F 70% 29.99 in 10.0 mi SSW 5.8 mph - N/A   Clear
11:54 PM 72.0 °F 61.3 °F 69% 29.99 in 10.0 mi South 9.2 mph - N/A   Clear